<?xml version='1.0' encoding='UTF-8'?>
<gpx xmlns="http://www.topografix.com/GPX/1/1" creator="www.balnam.be" version="1.1" xmlns:xsi="http://www.w3.org/2001/XMLSchema-instance" xsi:schemaLocation="http://www.topografix.com/GPX/1/1 http://www.topografix.com/GPX/1/1/gpx.xsd">
<trk>
<name>lsrjm11</name>
<cmt>s</cmt>
<desc>Jemeppe-sur-Meuse Chemin n°11 </desc>
<link href="https://chemins.be/jemeppessurmeuse/chemin/11"/><trkseg>
<trkpt lat="50.621866" lon="5.487180"><time>2026-05-02T17:42:55Z</time></trkpt>
<trkpt lat="50.621989" lon="5.487727"><time>2026-05-02T17:52:55Z</time></trkpt>
<trkpt lat="50.621685" lon="5.488911"><time>2026-05-02T18:02:55Z</time></trkpt>
<trkpt lat="50.621691" lon="5.489387"><time>2026-05-02T18:12:55Z</time></trkpt>
<trkpt lat="50.621596" lon="5.489533"><time>2026-05-02T18:22:55Z</time></trkpt>
</trkseg>
</trk>
<trk>
<name>lsrjm12</name>
<cmt>s</cmt>
<desc>Jemeppe-sur-Meuse Chemin n°12 Rue de la Commune</desc>
<link href="https://chemins.be/jemeppessurmeuse/chemin/12"/><trkseg>
<trkpt lat="50.613438" lon="5.502719"><time>2026-05-02T17:42:55Z</time></trkpt>
<trkpt lat="50.612439" lon="5.502000"><time>2026-05-02T17:52:55Z</time></trkpt>
<trkpt lat="50.612034" lon="5.500795"><time>2026-05-02T18:02:55Z</time></trkpt>
</trkseg></trk>
<trk>
<name>lsrjm12</name>
<cmt>r</cmt>
<desc>Jemeppe-sur-Meuse Chemin n°12 Rue de la Commune</desc>
<link href="https://chemins.be/jemeppessurmeuse/chemin/12"/><trkseg>
<trkpt lat="50.612034" lon="5.500795"><time>2026-05-02T18:02:55Z</time></trkpt>
<trkpt lat="50.611188" lon="5.497979"><time>2026-05-02T18:12:55Z</time></trkpt>
</trkseg></trk>
<trk>
<name>lsrjm12</name>
<cmt>s</cmt>
<desc>Jemeppe-sur-Meuse Chemin n°12 Rue de la Commune</desc>
<link href="https://chemins.be/jemeppessurmeuse/chemin/12"/><trkseg>
<trkpt lat="50.611188" lon="5.497979"><time>2026-05-02T18:12:55Z</time></trkpt>
<trkpt lat="50.610436" lon="5.495774"><time>2026-05-02T18:22:55Z</time></trkpt>
</trkseg></trk>
<trk>
<name>lsrjm12</name>
<cmt>r</cmt>
<desc>Jemeppe-sur-Meuse Chemin n°12 Rue de la Commune</desc>
<link href="https://chemins.be/jemeppessurmeuse/chemin/12"/><trkseg>
<trkpt lat="50.610436" lon="5.495774"><time>2026-05-02T18:22:55Z</time></trkpt>
<trkpt lat="50.609922" lon="5.494654"><time>2026-05-02T18:32:55Z</time></trkpt>
<trkpt lat="50.610320" lon="5.493939"><time>2026-05-02T18:42:55Z</time></trkpt>
</trkseg>
</trk>
<trk>
<name>lsrjm13</name>
<cmt>q</cmt>
<desc>Jemeppe-sur-Meuse Chemin n°13 </desc>
<link href="https://chemins.be/jemeppessurmeuse/chemin/13"/><trkseg>
<trkpt lat="50.620500" lon="5.514970"><time>2026-05-02T17:42:55Z</time></trkpt>
<trkpt lat="50.620935" lon="5.516458"><time>2026-05-02T17:52:55Z</time></trkpt>
<trkpt lat="50.621217" lon="5.516494"><time>2026-05-02T18:02:55Z</time></trkpt>
<trkpt lat="50.621716" lon="5.518747"><time>2026-05-02T18:12:55Z</time></trkpt>
<trkpt lat="50.621707" lon="5.519684"><time>2026-05-02T18:22:55Z</time></trkpt>
<trkpt lat="50.621997" lon="5.520671"><time>2026-05-02T18:32:55Z</time></trkpt>
</trkseg>
</trk>
<trk>
<name>lsrjm14</name>
<cmt>s</cmt>
<desc>Jemeppe-sur-Meuse Chemin n°14 </desc>
<link href="https://chemins.be/jemeppessurmeuse/chemin/14"/><trkseg>
<trkpt lat="50.618579" lon="5.491070"><time>2026-05-02T17:42:55Z</time></trkpt>
<trkpt lat="50.618726" lon="5.489539"><time>2026-05-02T17:52:55Z</time></trkpt>
<trkpt lat="50.618622" lon="5.488263"><time>2026-05-02T18:02:55Z</time></trkpt>
</trkseg>
</trk>
<trk>
<name>lsrjm16</name>
<cmt>v</cmt>
<desc>Jemeppe-sur-Meuse Chemin n°16 </desc>
<link href="https://chemins.be/jemeppessurmeuse/chemin/16"/><trkseg>
<trkpt lat="50.621063" lon="5.512001"><time>2026-05-02T17:42:55Z</time></trkpt>
<trkpt lat="50.621463" lon="5.511838"><time>2026-05-02T17:52:55Z</time></trkpt>
<trkpt lat="50.623016" lon="5.512196"><time>2026-05-02T18:02:55Z</time></trkpt>
<trkpt lat="50.623216" lon="5.512007"><time>2026-05-02T18:12:55Z</time></trkpt>
</trkseg></trk>
<trk>
<name>lsrjm16</name>
<cmt>s</cmt>
<desc>Jemeppe-sur-Meuse Chemin n°16 </desc>
<link href="https://chemins.be/jemeppessurmeuse/chemin/16"/><trkseg>
<trkpt lat="50.623216" lon="5.512007"><time>2026-05-02T18:12:55Z</time></trkpt>
<trkpt lat="50.623835" lon="5.510919"><time>2026-05-02T18:22:55Z</time></trkpt>
</trkseg>
</trk>
<trk>
<name>lsrjm17</name>
<cmt>s</cmt>
<desc>Jemeppe-sur-Meuse Chemin n°17 </desc>
<link href="https://chemins.be/jemeppessurmeuse/chemin/17"/><trkseg>
<trkpt lat="50.607971" lon="5.490258"><time>2026-05-02T17:42:55Z</time></trkpt>
<trkpt lat="50.606904" lon="5.490158"><time>2026-05-02T17:52:55Z</time></trkpt>
</trkseg>
</trk>
<trk>
<name>lsrjm18</name>
<cmt>r</cmt>
<desc>Jemeppe-sur-Meuse Chemin n°18 Rue des Rhieux</desc>
<link href="https://chemins.be/jemeppessurmeuse/chemin/18"/><trkseg>
<trkpt lat="50.617614" lon="5.500958"><time>2026-05-02T17:42:55Z</time></trkpt>
<trkpt lat="50.617801" lon="5.500677"><time>2026-05-02T17:52:55Z</time></trkpt>
</trkseg></trk>
<trk>
<name>lsrjm18</name>
<cmt>s</cmt>
<desc>Jemeppe-sur-Meuse Chemin n°18 Rue des Rhieux</desc>
<link href="https://chemins.be/jemeppessurmeuse/chemin/18"/><trkseg>
<trkpt lat="50.617801" lon="5.500677"><time>2026-05-02T17:52:55Z</time></trkpt>
<trkpt lat="50.618228" lon="5.500309"><time>2026-05-02T18:02:55Z</time></trkpt>
<trkpt lat="50.618342" lon="5.499651"><time>2026-05-02T18:12:55Z</time></trkpt>
<trkpt lat="50.618484" lon="5.499347"><time>2026-05-02T18:22:55Z</time></trkpt>
</trkseg></trk>
<trk>
<name>lsrjm18</name>
<cmt>d</cmt>
<desc>Jemeppe-sur-Meuse Chemin n°18 Rue des Rhieux</desc>
<link href="https://chemins.be/jemeppessurmeuse/chemin/18"/><trkseg>
<trkpt lat="50.618484" lon="5.499347"><time>2026-05-02T18:22:55Z</time></trkpt>
<trkpt lat="50.618768" lon="5.499504"><time>2026-05-02T18:32:55Z</time></trkpt>
</trkseg></trk>
<trk>
<name>lsrjm18</name>
<cmt>s</cmt>
<desc>Jemeppe-sur-Meuse Chemin n°18 Rue des Rhieux</desc>
<link href="https://chemins.be/jemeppessurmeuse/chemin/18"/><trkseg>
<trkpt lat="50.618768" lon="5.499504"><time>2026-05-02T18:32:55Z</time></trkpt>
<trkpt lat="50.618963" lon="5.499161"><time>2026-05-02T18:42:55Z</time></trkpt>
<trkpt lat="50.620577" lon="5.497790"><time>2026-05-02T18:52:55Z</time></trkpt>
<trkpt lat="50.620718" lon="5.497046"><time>2026-05-02T19:02:55Z</time></trkpt>
<trkpt lat="50.621503" lon="5.496953"><time>2026-05-02T19:12:55Z</time></trkpt>
<trkpt lat="50.621916" lon="5.497382"><time>2026-05-02T19:22:55Z</time></trkpt>
</trkseg>
</trk>
<trk>
<name>lsrjm19</name>
<cmt>v</cmt>
<desc>Jemeppe-sur-Meuse Chemin n°19 Rue du Bois-de-Mont / Rue du Laveu</desc>
<link href="https://chemins.be/jemeppessurmeuse/chemin/19"/><trkseg>
<trkpt lat="50.620480" lon="5.482714"><time>2026-05-02T17:42:55Z</time></trkpt>
<trkpt lat="50.619767" lon="5.482994"><time>2026-05-02T17:52:55Z</time></trkpt>
<trkpt lat="50.619830" lon="5.483149"><time>2026-05-02T18:02:55Z</time></trkpt>
<trkpt lat="50.619549" lon="5.483239"><time>2026-05-02T18:12:55Z</time></trkpt>
<trkpt lat="50.619419" lon="5.483436"><time>2026-05-02T18:22:55Z</time></trkpt>
</trkseg></trk>
<trk>
<name>lsrjm19</name>
<cmt>q</cmt>
<desc>Jemeppe-sur-Meuse Chemin n°19 Rue du Bois-de-Mont / Rue du Laveu</desc>
<link href="https://chemins.be/jemeppessurmeuse/chemin/19"/><trkseg>
<trkpt lat="50.619419" lon="5.483436"><time>2026-05-02T18:22:55Z</time></trkpt>
<trkpt lat="50.618659" lon="5.484326"><time>2026-05-02T18:32:55Z</time></trkpt>
</trkseg></trk>
<trk>
<name>lsrjm19</name>
<cmt>v</cmt>
<desc>Jemeppe-sur-Meuse Chemin n°19 Rue du Bois-de-Mont / Rue du Laveu</desc>
<link href="https://chemins.be/jemeppessurmeuse/chemin/19"/><trkseg>
<trkpt lat="50.618659" lon="5.484326"><time>2026-05-02T18:32:55Z</time></trkpt>
<trkpt lat="50.618524" lon="5.484470"><time>2026-05-02T18:42:55Z</time></trkpt>
<trkpt lat="50.618555" lon="5.484622"><time>2026-05-02T18:52:55Z</time></trkpt>
<trkpt lat="50.618025" lon="5.484985"><time>2026-05-02T19:02:55Z</time></trkpt>
</trkseg></trk>
<trk>
<name>lsrjm19</name>
<cmt>r</cmt>
<desc>Jemeppe-sur-Meuse Chemin n°19 Rue du Bois-de-Mont / Rue du Laveu</desc>
<link href="https://chemins.be/jemeppessurmeuse/chemin/19"/><trkseg>
<trkpt lat="50.618025" lon="5.484985"><time>2026-05-02T19:02:55Z</time></trkpt>
<trkpt lat="50.617848" lon="5.483629"><time>2026-05-02T19:12:55Z</time></trkpt>
<trkpt lat="50.617333" lon="5.483831"><time>2026-05-02T19:22:55Z</time></trkpt>
<trkpt lat="50.616644" lon="5.484466"><time>2026-05-02T19:32:55Z</time></trkpt>
<trkpt lat="50.616835" lon="5.485440"><time>2026-05-02T19:42:55Z</time></trkpt>
<trkpt lat="50.615304" lon="5.486565"><time>2026-05-02T19:52:55Z</time></trkpt>
</trkseg></trk>
<trk>
<name>lsrjm19</name>
<cmt>v</cmt>
<desc>Jemeppe-sur-Meuse Chemin n°19 Rue du Bois-de-Mont / Rue du Laveu</desc>
<link href="https://chemins.be/jemeppessurmeuse/chemin/19"/><trkseg>
<trkpt lat="50.615304" lon="5.486565"><time>2026-05-02T19:52:55Z</time></trkpt>
<trkpt lat="50.615263" lon="5.486399"><time>2026-05-02T20:02:55Z</time></trkpt>
<trkpt lat="50.614964" lon="5.486590"><time>2026-05-02T20:12:55Z</time></trkpt>
<trkpt lat="50.614781" lon="5.486967"><time>2026-05-02T20:22:55Z</time></trkpt>
</trkseg>
</trk>
<trk>
<name>lsrjm2</name>
<cmt>r</cmt>
<desc>Jemeppe-sur-Meuse Chemin n°2 </desc>
<link href="https://chemins.be/jemeppessurmeuse/chemin/2"/><trkseg>
<trkpt lat="50.616209" lon="5.499319"><time>2026-05-02T17:42:55Z</time></trkpt>
<trkpt lat="50.615328" lon="5.497552"><time>2026-05-02T17:52:55Z</time></trkpt>
<trkpt lat="50.614765" lon="5.496421"><time>2026-05-02T18:02:55Z</time></trkpt>
</trkseg></trk>
<trk>
<name>lsrjm2</name>
<cmt>s</cmt>
<desc>Jemeppe-sur-Meuse Chemin n°2 </desc>
<link href="https://chemins.be/jemeppessurmeuse/chemin/2"/><trkseg>
<trkpt lat="50.614765" lon="5.496421"><time>2026-05-02T18:02:55Z</time></trkpt>
<trkpt lat="50.614260" lon="5.495505"><time>2026-05-02T18:12:55Z</time></trkpt>
<trkpt lat="50.612661" lon="5.492865"><time>2026-05-02T18:22:55Z</time></trkpt>
</trkseg></trk>
<trk>
<name>lsrjm2</name>
<cmt>r</cmt>
<desc>Jemeppe-sur-Meuse Chemin n°2 </desc>
<link href="https://chemins.be/jemeppessurmeuse/chemin/2"/><trkseg>
<trkpt lat="50.612661" lon="5.492865"><time>2026-05-02T18:22:55Z</time></trkpt>
<trkpt lat="50.611625" lon="5.491422"><time>2026-05-02T18:32:55Z</time></trkpt>
</trkseg>
</trk>
<trk>
<name>lsrjm20</name>
<cmt>q</cmt>
<desc>Jemeppe-sur-Meuse Chemin n°20 </desc>
<link href="https://chemins.be/jemeppessurmeuse/chemin/20"/><trkseg>
<trkpt lat="50.613687" lon="5.486720"><time>2026-05-02T17:42:55Z</time></trkpt>
<trkpt lat="50.612544" lon="5.484394"><time>2026-05-02T17:52:55Z</time></trkpt>
<trkpt lat="50.612359" lon="5.483399"><time>2026-05-02T18:02:55Z</time></trkpt>
<trkpt lat="50.611868" lon="5.482678"><time>2026-05-02T18:12:55Z</time></trkpt>
</trkseg>
</trk>
<trk>
<name>lsrjm21</name>
<cmt>r</cmt>
<desc>Jemeppe-sur-Meuse Sentier n°21 Cité du Onze Novembre</desc>
<link href="https://chemins.be/jemeppessurmeuse/sentier/21"/><trkseg>
<trkpt lat="50.616428" lon="5.483911"><time>2026-05-02T17:42:55Z</time></trkpt>
<trkpt lat="50.615867" lon="5.484294"><time>2026-05-02T17:52:55Z</time></trkpt>
</trkseg></trk>
<trk>
<name>lsrjm21</name>
<cmt>v</cmt>
<desc>Jemeppe-sur-Meuse Sentier n°21 Cité du Onze Novembre</desc>
<link href="https://chemins.be/jemeppessurmeuse/sentier/21"/><trkseg>
<trkpt lat="50.615867" lon="5.484294"><time>2026-05-02T17:52:55Z</time></trkpt>
<trkpt lat="50.615839" lon="5.484378"><time>2026-05-02T18:02:55Z</time></trkpt>
<trkpt lat="50.615179" lon="5.484843"><time>2026-05-02T18:12:55Z</time></trkpt>
<trkpt lat="50.614871" lon="5.484987"><time>2026-05-02T18:22:55Z</time></trkpt>
<trkpt lat="50.614592" lon="5.485144"><time>2026-05-02T18:32:55Z</time></trkpt>
<trkpt lat="50.614694" lon="5.485616"><time>2026-05-02T18:42:55Z</time></trkpt>
</trkseg></trk>
<trk>
<name>lsrjm21</name>
<cmt>q</cmt>
<desc>Jemeppe-sur-Meuse Sentier n°21 Cité du Onze Novembre</desc>
<link href="https://chemins.be/jemeppessurmeuse/sentier/21"/><trkseg>
<trkpt lat="50.614694" lon="5.485616"><time>2026-05-02T18:42:55Z</time></trkpt>
<trkpt lat="50.614296" lon="5.485836"><time>2026-05-02T18:52:55Z</time></trkpt>
<trkpt lat="50.613901" lon="5.486400"><time>2026-05-02T19:02:55Z</time></trkpt>
<trkpt lat="50.613946" lon="5.486520"><time>2026-05-02T19:12:55Z</time></trkpt>
<trkpt lat="50.613725" lon="5.486786"><time>2026-05-02T19:22:55Z</time></trkpt>
</trkseg>
</trk>
<trk>
<name>lsrjm21bis</name>
<cmt>q</cmt>
<desc>Jemeppe-sur-Meuse Chemin n°21bis </desc>
<link href="https://chemins.be/jemeppessurmeuse/chemin/21bis"/><trkseg>
<trkpt lat="50.615156" lon="5.484836"><time>2026-05-02T17:42:55Z</time></trkpt>
<trkpt lat="50.614484" lon="5.484610"><time>2026-05-02T17:52:55Z</time></trkpt>
<trkpt lat="50.613943" lon="5.485096"><time>2026-05-02T18:02:55Z</time></trkpt>
<trkpt lat="50.613386" lon="5.484868"><time>2026-05-02T18:12:55Z</time></trkpt>
<trkpt lat="50.612947" lon="5.484452"><time>2026-05-02T18:22:55Z</time></trkpt>
</trkseg>
</trk>
<trk>
<name>lsrjm22</name>
<cmt>r</cmt>
<desc>Jemeppe-sur-Meuse Chemin n°22 Rue Bigaye</desc>
<link href="https://chemins.be/jemeppessurmeuse/chemin/22"/><trkseg>
<trkpt lat="50.609924" lon="5.484851"><time>2026-05-02T17:42:55Z</time></trkpt>
<trkpt lat="50.610467" lon="5.485617"><time>2026-05-02T17:52:55Z</time></trkpt>
</trkseg></trk>
<trk>
<name>lsrjm22</name>
<cmt>q</cmt>
<desc>Jemeppe-sur-Meuse Chemin n°22 Rue Bigaye</desc>
<link href="https://chemins.be/jemeppessurmeuse/chemin/22"/><trkseg>
<trkpt lat="50.610467" lon="5.485617"><time>2026-05-02T17:52:55Z</time></trkpt>
<trkpt lat="50.611141" lon="5.486475"><time>2026-05-02T18:02:55Z</time></trkpt>
<trkpt lat="50.612434" lon="5.488985"><time>2026-05-02T18:12:55Z</time></trkpt>
<trkpt lat="50.612766" lon="5.489386"><time>2026-05-02T18:22:55Z</time></trkpt>
</trkseg>
</trk>
<trk>
<name>lsrjm23</name>
<cmt>r</cmt>
<desc>Jemeppe-sur-Meuse Chemin n°23 Rue des Kessales</desc>
<link href="https://chemins.be/jemeppessurmeuse/chemin/23"/><trkseg>
<trkpt lat="50.615402" lon="5.489611"><time>2026-05-02T17:42:55Z</time></trkpt>
<trkpt lat="50.615474" lon="5.491685"><time>2026-05-02T17:52:55Z</time></trkpt>
</trkseg></trk>
<trk>
<name>lsrjm23</name>
<cmt>s</cmt>
<desc>Jemeppe-sur-Meuse Chemin n°23 Rue des Kessales</desc>
<link href="https://chemins.be/jemeppessurmeuse/chemin/23"/><trkseg>
<trkpt lat="50.615474" lon="5.491685"><time>2026-05-02T17:52:55Z</time></trkpt>
<trkpt lat="50.615293" lon="5.493777"><time>2026-05-02T18:02:55Z</time></trkpt>
<trkpt lat="50.614276" lon="5.495540"><time>2026-05-02T18:12:55Z</time></trkpt>
</trkseg>
</trk>
<trk>
<name>lsrjm24</name>
<cmt>r</cmt>
<desc>Jemeppe-sur-Meuse Sentier n°24 Rue des Peupliers</desc>
<link href="https://chemins.be/jemeppessurmeuse/sentier/24"/><trkseg>
<trkpt lat="50.621848" lon="5.487173"><time>2026-05-02T17:42:55Z</time></trkpt>
<trkpt lat="50.622470" lon="5.486180"><time>2026-05-02T17:52:55Z</time></trkpt>
</trkseg></trk>
<trk>
<name>lsrjm24</name>
<cmt>v</cmt>
<desc>Jemeppe-sur-Meuse Sentier n°24 Rue des Peupliers</desc>
<link href="https://chemins.be/jemeppessurmeuse/sentier/24"/><trkseg>
<trkpt lat="50.622470" lon="5.486180"><time>2026-05-02T17:52:55Z</time></trkpt>
<trkpt lat="50.622851" lon="5.485545"><time>2026-05-02T18:02:55Z</time></trkpt>
<trkpt lat="50.623237" lon="5.484899"><time>2026-05-02T18:12:55Z</time></trkpt>
<trkpt lat="50.623518" lon="5.484430"><time>2026-05-02T18:22:55Z</time></trkpt>
</trkseg>
</trk>
<trk>
<name>lsrjm25</name>
<cmt>r</cmt>
<desc>Jemeppe-sur-Meuse Sentier n°25 Rue des Mineurs / Ruelle des Moudreux / Rue Aripette</desc>
<link href="https://chemins.be/jemeppessurmeuse/sentier/25"/><trkseg>
<trkpt lat="50.614110" lon="5.499948"><time>2026-05-02T17:42:55Z</time></trkpt>
<trkpt lat="50.615063" lon="5.498758"><time>2026-05-02T17:52:55Z</time></trkpt>
</trkseg></trk>
<trk>
<name>lsrjm25</name>
<cmt>v</cmt>
<desc>Jemeppe-sur-Meuse Sentier n°25 Rue des Mineurs / Ruelle des Moudreux / Rue Aripette</desc>
<link href="https://chemins.be/jemeppessurmeuse/sentier/25"/><trkseg>
<trkpt lat="50.615063" lon="5.498758"><time>2026-05-02T17:52:55Z</time></trkpt>
<trkpt lat="50.614883" lon="5.498436"><time>2026-05-02T18:02:55Z</time></trkpt>
<trkpt lat="50.615340" lon="5.497592"><time>2026-05-02T18:12:55Z</time></trkpt>
</trkseg></trk>
<trk>
<name>lsrjm25</name>
<cmt>r</cmt>
<desc>Jemeppe-sur-Meuse Sentier n°25 Rue des Mineurs / Ruelle des Moudreux / Rue Aripette</desc>
<link href="https://chemins.be/jemeppessurmeuse/sentier/25"/><trkseg>
<trkpt lat="50.615340" lon="5.497592"><time>2026-05-02T18:12:55Z</time></trkpt>
<trkpt lat="50.615872" lon="5.496589"><time>2026-05-02T18:22:55Z</time></trkpt>
</trkseg></trk>
<trk>
<name>lsrjm25</name>
<cmt>v</cmt>
<desc>Jemeppe-sur-Meuse Sentier n°25 Rue des Mineurs / Ruelle des Moudreux / Rue Aripette</desc>
<link href="https://chemins.be/jemeppessurmeuse/sentier/25"/><trkseg>
<trkpt lat="50.615872" lon="5.496589"><time>2026-05-02T18:22:55Z</time></trkpt>
<trkpt lat="50.615958" lon="5.496419"><time>2026-05-02T18:32:55Z</time></trkpt>
</trkseg></trk>
<trk>
<name>lsrjm25</name>
<cmt>s</cmt>
<desc>Jemeppe-sur-Meuse Sentier n°25 Rue des Mineurs / Ruelle des Moudreux / Rue Aripette</desc>
<link href="https://chemins.be/jemeppessurmeuse/sentier/25"/><trkseg>
<trkpt lat="50.615958" lon="5.496419"><time>2026-05-02T18:32:55Z</time></trkpt>
<trkpt lat="50.616181" lon="5.495942"><time>2026-05-02T18:42:55Z</time></trkpt>
</trkseg>
</trk>
<trk>
<name>lsrjm33</name>
<cmt>v</cmt>
<desc>Jemeppe-sur-Meuse Chemin n°33 </desc>
<link href="https://chemins.be/jemeppessurmeuse/chemin/33"/><trkseg>
<trkpt lat="50.626422" lon="5.517980"><time>2026-05-02T17:42:55Z</time></trkpt>
<trkpt lat="50.627048" lon="5.517486"><time>2026-05-02T17:52:55Z</time></trkpt>
</trkseg>
</trk>
<trk>
<name>lsrjm38</name>
<cmt>b</cmt>
<desc>Jemeppe-sur-Meuse Sentier n°38 Sentier du Triffou</desc>
<link href="https://chemins.be/jemeppessurmeuse/sentier/38"/><trkseg>
<trkpt lat="50.622709" lon="5.500356"><time>2026-05-02T17:42:55Z</time></trkpt>
<trkpt lat="50.622908" lon="5.500724"><time>2026-05-02T17:52:55Z</time></trkpt>
<trkpt lat="50.623146" lon="5.501826"><time>2026-05-02T18:02:55Z</time></trkpt>
<trkpt lat="50.623359" lon="5.502436"><time>2026-05-02T18:12:55Z</time></trkpt>
</trkseg></trk>
<trk>
<name>lsrjm38</name>
<cmt>d</cmt>
<desc>Jemeppe-sur-Meuse Sentier n°38 Sentier du Triffou</desc>
<link href="https://chemins.be/jemeppessurmeuse/sentier/38"/><trkseg>
<trkpt lat="50.623359" lon="5.502436"><time>2026-05-02T18:12:55Z</time></trkpt>
<trkpt lat="50.623634" lon="5.503135"><time>2026-05-02T18:22:55Z</time></trkpt>
<trkpt lat="50.623913" lon="5.503477"><time>2026-05-02T18:32:55Z</time></trkpt>
<trkpt lat="50.623965" lon="5.503650"><time>2026-05-02T18:42:55Z</time></trkpt>
<trkpt lat="50.624718" lon="5.504792"><time>2026-05-02T18:52:55Z</time></trkpt>
<trkpt lat="50.625285" lon="5.505810"><time>2026-05-02T19:02:55Z</time></trkpt>
</trkseg></trk>
<trk>
<name>lsrjm38</name>
<cmt>s</cmt>
<desc>Jemeppe-sur-Meuse Sentier n°38 Sentier du Triffou</desc>
<link href="https://chemins.be/jemeppessurmeuse/sentier/38"/><trkseg>
<trkpt lat="50.625285" lon="5.505810"><time>2026-05-02T19:02:55Z</time></trkpt>
<trkpt lat="50.625593" lon="5.506264"><time>2026-05-02T19:12:55Z</time></trkpt>
<trkpt lat="50.626560" lon="5.507898"><time>2026-05-02T19:22:55Z</time></trkpt>
<trkpt lat="50.626801" lon="5.509143"><time>2026-05-02T19:32:55Z</time></trkpt>
</trkseg>
</trk>
<trk>
<name>lsrjm39</name>
<cmt>s</cmt>
<desc>Jemeppe-sur-Meuse Sentier n°39 </desc>
<link href="https://chemins.be/jemeppessurmeuse/sentier/39"/><trkseg>
<trkpt lat="50.611674" lon="5.499633"><time>2026-05-02T17:42:55Z</time></trkpt>
<trkpt lat="50.612957" lon="5.497984"><time>2026-05-02T17:52:55Z</time></trkpt>
</trkseg>
</trk>
<trk>
<name>lsrjm4</name>
<cmt>v</cmt>
<desc>Jemeppe-sur-Meuse Chemin n°4 Rue du Carrefour</desc>
<link href="https://chemins.be/jemeppessurmeuse/chemin/4"/><trkseg>
<trkpt lat="50.622928" lon="5.507970"><time>2026-05-02T17:42:55Z</time></trkpt>
<trkpt lat="50.624322" lon="5.508163"><time>2026-05-02T17:52:55Z</time></trkpt>
</trkseg></trk>
<trk>
<name>lsrjm4</name>
<cmt>s</cmt>
<desc>Jemeppe-sur-Meuse Chemin n°4 Rue du Carrefour</desc>
<link href="https://chemins.be/jemeppessurmeuse/chemin/4"/><trkseg>
<trkpt lat="50.624322" lon="5.508163"><time>2026-05-02T17:52:55Z</time></trkpt>
<trkpt lat="50.626630" lon="5.509137"><time>2026-05-02T18:02:55Z</time></trkpt>
</trkseg>
</trk>
<trk>
<name>lsrjm40</name>
<cmt>q</cmt>
<desc>Jemeppe-sur-Meuse Sentier n°40 </desc>
<link href="https://chemins.be/jemeppessurmeuse/sentier/40"/><trkseg>
<trkpt lat="50.623832" lon="5.484815"><time>2026-05-02T17:42:55Z</time></trkpt>
<trkpt lat="50.624272" lon="5.484150"><time>2026-05-02T17:52:55Z</time></trkpt>
<trkpt lat="50.624458" lon="5.484257"><time>2026-05-02T18:02:55Z</time></trkpt>
</trkseg></trk>
<trk>
<name>lsrjm40</name>
<cmt>r</cmt>
<desc>Jemeppe-sur-Meuse Sentier n°40 </desc>
<link href="https://chemins.be/jemeppessurmeuse/sentier/40"/><trkseg>
<trkpt lat="50.624458" lon="5.484257"><time>2026-05-02T18:02:55Z</time></trkpt>
<trkpt lat="50.624889" lon="5.483885"><time>2026-05-02T18:12:55Z</time></trkpt>
<trkpt lat="50.625006" lon="5.483608"><time>2026-05-02T18:22:55Z</time></trkpt>
</trkseg></trk>
<trk>
<name>lsrjm40</name>
<cmt>q</cmt>
<desc>Jemeppe-sur-Meuse Sentier n°40 </desc>
<link href="https://chemins.be/jemeppessurmeuse/sentier/40"/><trkseg>
<trkpt lat="50.625006" lon="5.483608"><time>2026-05-02T18:22:55Z</time></trkpt>
<trkpt lat="50.625151" lon="5.482877"><time>2026-05-02T18:32:55Z</time></trkpt>
<trkpt lat="50.625307" lon="5.482090"><time>2026-05-02T18:42:55Z</time></trkpt>
</trkseg>
</trk>
<trk>
<name>lsrjm41</name>
<cmt>q</cmt>
<desc>Jemeppe-sur-Meuse Sentier n°41 </desc>
<link href="https://chemins.be/jemeppessurmeuse/sentier/41"/><trkseg>
<trkpt lat="50.612914" lon="5.482231"><time>2026-05-02T17:42:55Z</time></trkpt>
<trkpt lat="50.613336" lon="5.483846"><time>2026-05-02T17:52:55Z</time></trkpt>
<trkpt lat="50.612961" lon="5.484425"><time>2026-05-02T18:02:55Z</time></trkpt>
<trkpt lat="50.612702" lon="5.484645"><time>2026-05-02T18:12:55Z</time></trkpt>
</trkseg>
</trk>
<trk>
<name>lsrjm42</name>
<cmt>v</cmt>
<desc>Jemeppe-sur-Meuse Sentier n°42 </desc>
<link href="https://chemins.be/jemeppessurmeuse/sentier/42"/><trkseg>
<trkpt lat="50.618335" lon="5.480951"><time>2026-05-02T17:42:55Z</time></trkpt>
<trkpt lat="50.618800" lon="5.481992"><time>2026-05-02T17:52:55Z</time></trkpt>
<trkpt lat="50.618956" lon="5.482342"><time>2026-05-02T18:02:55Z</time></trkpt>
</trkseg></trk>
<trk>
<name>lsrjm42</name>
<cmt>s</cmt>
<desc>Jemeppe-sur-Meuse Sentier n°42 </desc>
<link href="https://chemins.be/jemeppessurmeuse/sentier/42"/><trkseg>
<trkpt lat="50.618956" lon="5.482342"><time>2026-05-02T18:02:55Z</time></trkpt>
<trkpt lat="50.619370" lon="5.483368"><time>2026-05-02T18:12:55Z</time></trkpt>
</trkseg>
</trk>
<trk>
<name>lsrjm5</name>
<cmt>r</cmt>
<desc>Jemeppe-sur-Meuse Chemin n°5 Rue Xhavée</desc>
<link href="https://chemins.be/jemeppessurmeuse/chemin/5"/><trkseg>
<trkpt lat="50.625264" lon="5.514738"><time>2026-05-02T17:42:55Z</time></trkpt>
<trkpt lat="50.624594" lon="5.513115"><time>2026-05-02T17:52:55Z</time></trkpt>
<trkpt lat="50.623921" lon="5.511167"><time>2026-05-02T18:02:55Z</time></trkpt>
</trkseg></trk>
<trk>
<name>lsrjm5</name>
<cmt>s</cmt>
<desc>Jemeppe-sur-Meuse Chemin n°5 Rue Xhavée</desc>
<link href="https://chemins.be/jemeppessurmeuse/chemin/5"/><trkseg>
<trkpt lat="50.623921" lon="5.511167"><time>2026-05-02T18:02:55Z</time></trkpt>
<trkpt lat="50.623695" lon="5.510515"><time>2026-05-02T18:12:55Z</time></trkpt>
<trkpt lat="50.623336" lon="5.509656"><time>2026-05-02T18:22:55Z</time></trkpt>
</trkseg></trk>
<trk>
<name>lsrjm5</name>
<cmt>r</cmt>
<desc>Jemeppe-sur-Meuse Chemin n°5 Rue Xhavée</desc>
<link href="https://chemins.be/jemeppessurmeuse/chemin/5"/><trkseg>
<trkpt lat="50.623336" lon="5.509656"><time>2026-05-02T18:22:55Z</time></trkpt>
<trkpt lat="50.623331" lon="5.509184"><time>2026-05-02T18:32:55Z</time></trkpt>
<trkpt lat="50.622988" lon="5.507983"><time>2026-05-02T18:42:55Z</time></trkpt>
</trkseg>
</trk>
<trk>
<name>lsrjm6</name>
<cmt>d</cmt>
<desc>Jemeppe-sur-Meuse Chemin n°6 Chemin du Bois des Pourçais / Chemin n° 6</desc>
<link href="https://chemins.be/jemeppessurmeuse/chemin/6"/><trkseg>
<trkpt lat="50.622211" lon="5.497970"><time>2026-05-02T17:42:55Z</time></trkpt>
<trkpt lat="50.622423" lon="5.498151"><time>2026-05-02T17:52:55Z</time></trkpt>
</trkseg></trk>
<trk>
<name>lsrjm6</name>
<cmt>r</cmt>
<desc>Jemeppe-sur-Meuse Chemin n°6 Chemin du Bois des Pourçais / Chemin n° 6</desc>
<link href="https://chemins.be/jemeppessurmeuse/chemin/6"/><trkseg>
<trkpt lat="50.622423" lon="5.498151"><time>2026-05-02T17:52:55Z</time></trkpt>
<trkpt lat="50.622730" lon="5.498977"><time>2026-05-02T18:02:55Z</time></trkpt>
</trkseg></trk>
<trk>
<name>lsrjm6</name>
<cmt>v</cmt>
<desc>Jemeppe-sur-Meuse Chemin n°6 Chemin du Bois des Pourçais / Chemin n° 6</desc>
<link href="https://chemins.be/jemeppessurmeuse/chemin/6"/><trkseg>
<trkpt lat="50.622730" lon="5.498977"><time>2026-05-02T18:02:55Z</time></trkpt>
<trkpt lat="50.622890" lon="5.499393"><time>2026-05-02T18:12:55Z</time></trkpt>
<trkpt lat="50.623111" lon="5.499821"><time>2026-05-02T18:22:55Z</time></trkpt>
<trkpt lat="50.623728" lon="5.501023"><time>2026-05-02T18:32:55Z</time></trkpt>
</trkseg></trk>
<trk>
<name>lsrjm6</name>
<cmt>d</cmt>
<desc>Jemeppe-sur-Meuse Chemin n°6 Chemin du Bois des Pourçais / Chemin n° 6</desc>
<link href="https://chemins.be/jemeppessurmeuse/chemin/6"/><trkseg>
<trkpt lat="50.623728" lon="5.501023"><time>2026-05-02T18:32:55Z</time></trkpt>
<trkpt lat="50.624237" lon="5.502782"><time>2026-05-02T18:42:55Z</time></trkpt>
<trkpt lat="50.624513" lon="5.503040"><time>2026-05-02T18:52:55Z</time></trkpt>
</trkseg></trk>
<trk>
<name>lsrjm6</name>
<cmt>v</cmt>
<desc>Jemeppe-sur-Meuse Chemin n°6 Chemin du Bois des Pourçais / Chemin n° 6</desc>
<link href="https://chemins.be/jemeppessurmeuse/chemin/6"/><trkseg>
<trkpt lat="50.624513" lon="5.503040"><time>2026-05-02T18:52:55Z</time></trkpt>
<trkpt lat="50.624970" lon="5.503577"><time>2026-05-02T19:02:55Z</time></trkpt>
<trkpt lat="50.625252" lon="5.503377"><time>2026-05-02T19:12:55Z</time></trkpt>
</trkseg></trk>
<trk>
<name>lsrjm6</name>
<cmt>d</cmt>
<desc>Jemeppe-sur-Meuse Chemin n°6 Chemin du Bois des Pourçais / Chemin n° 6</desc>
<link href="https://chemins.be/jemeppessurmeuse/chemin/6"/><trkseg>
<trkpt lat="50.625252" lon="5.503377"><time>2026-05-02T19:12:55Z</time></trkpt>
<trkpt lat="50.625562" lon="5.504493"><time>2026-05-02T19:22:55Z</time></trkpt>
</trkseg></trk>
<trk>
<name>lsrjm6</name>
<cmt>s</cmt>
<desc>Jemeppe-sur-Meuse Chemin n°6 Chemin du Bois des Pourçais / Chemin n° 6</desc>
<link href="https://chemins.be/jemeppessurmeuse/chemin/6"/><trkseg>
<trkpt lat="50.625562" lon="5.504493"><time>2026-05-02T19:22:55Z</time></trkpt>
<trkpt lat="50.625865" lon="5.504904"><time>2026-05-02T19:32:55Z</time></trkpt>
<trkpt lat="50.626289" lon="5.505390"><time>2026-05-02T19:42:55Z</time></trkpt>
</trkseg></trk>
<trk>
<name>lsrjm6</name>
<cmt>v</cmt>
<desc>Jemeppe-sur-Meuse Chemin n°6 Chemin du Bois des Pourçais / Chemin n° 6</desc>
<link href="https://chemins.be/jemeppessurmeuse/chemin/6"/><trkseg>
<trkpt lat="50.626289" lon="5.505390"><time>2026-05-02T19:42:55Z</time></trkpt>
<trkpt lat="50.626324" lon="5.505515"><time>2026-05-02T19:52:55Z</time></trkpt>
<trkpt lat="50.626977" lon="5.505937"><time>2026-05-02T20:02:55Z</time></trkpt>
<trkpt lat="50.627285" lon="5.506591"><time>2026-05-02T20:12:55Z</time></trkpt>
</trkseg></trk>
<trk>
<name>lsrjm6</name>
<cmt>q</cmt>
<desc>Jemeppe-sur-Meuse Chemin n°6 Chemin du Bois des Pourçais / Chemin n° 6</desc>
<link href="https://chemins.be/jemeppessurmeuse/chemin/6"/><trkseg>
<trkpt lat="50.627285" lon="5.506591"><time>2026-05-02T20:12:55Z</time></trkpt>
<trkpt lat="50.627783" lon="5.506977"><time>2026-05-02T20:22:55Z</time></trkpt>
<trkpt lat="50.628030" lon="5.507251"><time>2026-05-02T20:32:55Z</time></trkpt>
<trkpt lat="50.628568" lon="5.507884"><time>2026-05-02T20:42:55Z</time></trkpt>
</trkseg>
</trk>
<trk>
<name>lsrjmi1</name>
<cmt>b</cmt>
<desc>Jemeppe-sur-Meuse Chemin n°i1 Rue du Carrefour</desc>
<link href="https://chemins.be/jemeppessurmeuse/chemin/i1"/><trkseg>
<trkpt lat="50.623917" lon="5.509024"><time>2026-05-02T17:42:55Z</time></trkpt>
<trkpt lat="50.624362" lon="5.508166"><time>2026-05-02T17:52:55Z</time></trkpt>
</trkseg></trk>
<trk>
<name>lsrjmi1</name>
<cmt>v</cmt>
<desc>Jemeppe-sur-Meuse Chemin n°i1 Rue du Carrefour</desc>
<link href="https://chemins.be/jemeppessurmeuse/chemin/i1"/><trkseg>
<trkpt lat="50.624362" lon="5.508166"><time>2026-05-02T17:52:55Z</time></trkpt>
<trkpt lat="50.624981" lon="5.506833"><time>2026-05-02T18:02:55Z</time></trkpt>
<trkpt lat="50.625312" lon="5.505801"><time>2026-05-02T18:12:55Z</time></trkpt>
<trkpt lat="50.625554" lon="5.504484"><time>2026-05-02T18:22:55Z</time></trkpt>
</trkseg>
</trk>
<trk>
<name>lsrjmi10</name>
<cmt>v</cmt>
<desc>Jemeppe-sur-Meuse Chemin n°i10 </desc>
<link href="https://chemins.be/jemeppessurmeuse/chemin/i10"/><trkseg>
<trkpt lat="50.627293" lon="5.506618"><time>2026-05-02T17:42:55Z</time></trkpt>
<trkpt lat="50.627366" lon="5.506957"><time>2026-05-02T17:52:55Z</time></trkpt>
</trkseg>
</trk>
<trk>
<name>lsrjmi11</name>
<cmt>v</cmt>
<desc>Jemeppe-sur-Meuse Chemin n°i11 </desc>
<link href="https://chemins.be/jemeppessurmeuse/chemin/i11"/><trkseg>
<trkpt lat="50.624989" lon="5.506800"><time>2026-05-02T17:42:55Z</time></trkpt>
<trkpt lat="50.625154" lon="5.506982"><time>2026-05-02T17:52:55Z</time></trkpt>
</trkseg></trk>
<trk>
<name>lsrjmi11</name>
<cmt>d</cmt>
<desc>Jemeppe-sur-Meuse Chemin n°i11 </desc>
<link href="https://chemins.be/jemeppessurmeuse/chemin/i11"/><trkseg>
<trkpt lat="50.625154" lon="5.506982"><time>2026-05-02T17:52:55Z</time></trkpt>
<trkpt lat="50.625275" lon="5.507109"><time>2026-05-02T18:02:55Z</time></trkpt>
</trkseg>
</trk>
<trk>
<name>lsrjmi12</name>
<cmt>v</cmt>
<desc>Jemeppe-sur-Meuse Sentier n°i12 </desc>
<link href="https://chemins.be/jemeppessurmeuse/sentier/i12"/><trkseg>
<trkpt lat="50.627195" lon="5.506764"><time>2026-05-02T17:42:55Z</time></trkpt>
<trkpt lat="50.627276" lon="5.506610"><time>2026-05-02T17:52:55Z</time></trkpt>
</trkseg>
</trk>
<trk>
<name>lsrjmi2</name>
<cmt>v</cmt>
<desc>Jemeppe-sur-Meuse Sentier n°i2 </desc>
<link href="https://chemins.be/jemeppessurmeuse/sentier/i2"/><trkseg>
<trkpt lat="50.620458" lon="5.491177"><time>2026-05-02T17:42:55Z</time></trkpt>
<trkpt lat="50.620763" lon="5.491108"><time>2026-05-02T17:52:55Z</time></trkpt>
<trkpt lat="50.620643" lon="5.488190"><time>2026-05-02T18:02:55Z</time></trkpt>
<trkpt lat="50.620922" lon="5.487912"><time>2026-05-02T18:12:55Z</time></trkpt>
<trkpt lat="50.621068" lon="5.487744"><time>2026-05-02T18:22:55Z</time></trkpt>
<trkpt lat="50.620848" lon="5.486226"><time>2026-05-02T18:32:55Z</time></trkpt>
<trkpt lat="50.620399" lon="5.484964"><time>2026-05-02T18:42:55Z</time></trkpt>
<trkpt lat="50.620268" lon="5.484076"><time>2026-05-02T18:52:55Z</time></trkpt>
<trkpt lat="50.619805" lon="5.483050"><time>2026-05-02T19:02:55Z</time></trkpt>
<trkpt lat="50.619173" lon="5.481650"><time>2026-05-02T19:12:55Z</time></trkpt>
</trkseg>
</trk>
<trk>
<name>lsrjmi3</name>
<cmt>q</cmt>
<desc>Jemeppe-sur-Meuse Chemin n°i3 </desc>
<link href="https://chemins.be/jemeppessurmeuse/chemin/i3"/><trkseg>
<trkpt lat="50.619031" lon="5.481960"><time>2026-05-02T17:42:55Z</time></trkpt>
<trkpt lat="50.618929" lon="5.482018"><time>2026-05-02T17:52:55Z</time></trkpt>
<trkpt lat="50.618808" lon="5.481987"><time>2026-05-02T18:02:55Z</time></trkpt>
<trkpt lat="50.618628" lon="5.481532"><time>2026-05-02T18:12:55Z</time></trkpt>
<trkpt lat="50.618514" lon="5.481000"><time>2026-05-02T18:22:55Z</time></trkpt>
<trkpt lat="50.618582" lon="5.480884"><time>2026-05-02T18:32:55Z</time></trkpt>
<trkpt lat="50.618520" lon="5.480648"><time>2026-05-02T18:42:55Z</time></trkpt>
</trkseg>
</trk>
<trk>
<name>lsrjmi4</name>
<cmt>v</cmt>
<desc>Jemeppe-sur-Meuse Sentier n°i4 </desc>
<link href="https://chemins.be/jemeppessurmeuse/sentier/i4"/><trkseg>
<trkpt lat="50.621542" lon="5.489372"><time>2026-05-02T17:42:55Z</time></trkpt>
<trkpt lat="50.620694" lon="5.489384"><time>2026-05-02T17:52:55Z</time></trkpt>
</trkseg>
</trk>
<trk>
<name>lsrjmi5</name>
<cmt>v</cmt>
<desc>Jemeppe-sur-Meuse Sentier n°i5 </desc>
<link href="https://chemins.be/jemeppessurmeuse/sentier/i5"/><trkseg>
<trkpt lat="50.621430" lon="5.511807"><time>2026-05-02T17:42:55Z</time></trkpt>
<trkpt lat="50.621363" lon="5.511669"><time>2026-05-02T17:52:55Z</time></trkpt>
</trkseg>
</trk>
<trk>
<name>lsrjmi6</name>
<cmt>v</cmt>
<desc>Jemeppe-sur-Meuse Chemin n°i6 Rue Xhavée</desc>
<link href="https://chemins.be/jemeppessurmeuse/chemin/i6"/><trkseg>
<trkpt lat="50.623322" lon="5.509679"><time>2026-05-02T17:42:55Z</time></trkpt>
<trkpt lat="50.623234" lon="5.510266"><time>2026-05-02T17:52:55Z</time></trkpt>
<trkpt lat="50.623338" lon="5.510809"><time>2026-05-02T18:02:55Z</time></trkpt>
<trkpt lat="50.623302" lon="5.511428"><time>2026-05-02T18:12:55Z</time></trkpt>
<trkpt lat="50.623216" lon="5.512022"><time>2026-05-02T18:22:55Z</time></trkpt>
</trkseg>
</trk>
<trk>
<name>lsrjmi7</name>
<cmt>v</cmt>
<desc>Jemeppe-sur-Meuse Chemin n°i7 RAVeL Ligne 212</desc>
<link href="https://chemins.be/jemeppessurmeuse/chemin/i7"/><trkseg>
<trkpt lat="50.624370" lon="5.509424"><time>2026-05-02T17:42:55Z</time></trkpt>
<trkpt lat="50.624649" lon="5.508538"><time>2026-05-02T17:52:55Z</time></trkpt>
</trkseg></trk>
<trk>
<name>lsrjmi7</name>
<cmt>d</cmt>
<desc>Jemeppe-sur-Meuse Chemin n°i7 RAVeL Ligne 212</desc>
<link href="https://chemins.be/jemeppessurmeuse/chemin/i7"/><trkseg>
<trkpt lat="50.624649" lon="5.508538"><time>2026-05-02T17:52:55Z</time></trkpt>
<trkpt lat="50.624759" lon="5.507964"><time>2026-05-02T18:02:55Z</time></trkpt>
<trkpt lat="50.625353" lon="5.506991"><time>2026-05-02T18:12:55Z</time></trkpt>
<trkpt lat="50.626272" lon="5.505996"><time>2026-05-02T18:22:55Z</time></trkpt>
<trkpt lat="50.626735" lon="5.506124"><time>2026-05-02T18:32:55Z</time></trkpt>
<trkpt lat="50.626941" lon="5.506409"><time>2026-05-02T18:42:55Z</time></trkpt>
</trkseg></trk>
<trk>
<name>lsrjmi7</name>
<cmt>v</cmt>
<desc>Jemeppe-sur-Meuse Chemin n°i7 RAVeL Ligne 212</desc>
<link href="https://chemins.be/jemeppessurmeuse/chemin/i7"/><trkseg>
<trkpt lat="50.626941" lon="5.506409"><time>2026-05-02T18:42:55Z</time></trkpt>
<trkpt lat="50.627251" lon="5.506857"><time>2026-05-02T18:52:55Z</time></trkpt>
<trkpt lat="50.627348" lon="5.506951"><time>2026-05-02T19:02:55Z</time></trkpt>
<trkpt lat="50.627516" lon="5.507253"><time>2026-05-02T19:12:55Z</time></trkpt>
<trkpt lat="50.628107" lon="5.508184"><time>2026-05-02T19:22:55Z</time></trkpt>
</trkseg>
</trk>
<trk>
<name>lsrjmi8</name>
<cmt>v</cmt>
<desc>Jemeppe-sur-Meuse Chemin n°i8 RAVeL</desc>
<link href="https://chemins.be/jemeppessurmeuse/chemin/i8"/><trkseg>
<trkpt lat="50.624683" lon="5.508469"><time>2026-05-02T17:42:55Z</time></trkpt>
<trkpt lat="50.624962" lon="5.508276"><time>2026-05-02T17:52:55Z</time></trkpt>
<trkpt lat="50.625272" lon="5.507659"><time>2026-05-02T18:02:55Z</time></trkpt>
<trkpt lat="50.626287" lon="5.506669"><time>2026-05-02T18:12:55Z</time></trkpt>
<trkpt lat="50.626554" lon="5.506764"><time>2026-05-02T18:22:55Z</time></trkpt>
<trkpt lat="50.627403" lon="5.508601"><time>2026-05-02T18:32:55Z</time></trkpt>
</trkseg>
</trk>
<trk>
<name>lsrjmi9</name>
<cmt>q</cmt>
<desc>Jemeppe-sur-Meuse Sentier n°i9 </desc>
<link href="https://chemins.be/jemeppessurmeuse/sentier/i9"/><trkseg>
<trkpt lat="50.626167" lon="5.506060"><time>2026-05-02T17:42:55Z</time></trkpt>
<trkpt lat="50.626303" lon="5.505400"><time>2026-05-02T17:52:55Z</time></trkpt>
<trkpt lat="50.626596" lon="5.504821"><time>2026-05-02T18:02:55Z</time></trkpt>
</trkseg>
</trk>
<trk>
<name>lsrjmL210</name>
<cmt>q</cmt>
<desc>Jemeppe-sur-Meuse Chemin n°L210 Rue des Coquerais</desc>
<link href="https://chemins.be/jemeppessurmeuse/chemin/L210"/><trkseg>
<trkpt lat="50.622830" lon="5.519934"><time>2026-05-02T17:42:55Z</time></trkpt>
<trkpt lat="50.622118" lon="5.515683"><time>2026-05-02T17:52:55Z</time></trkpt>
</trkseg></trk>
<trk>
<name>lsrjmL210</name>
<cmt>r</cmt>
<desc>Jemeppe-sur-Meuse Chemin n°L210 Rue des Coquerais</desc>
<link href="https://chemins.be/jemeppessurmeuse/chemin/L210"/><trkseg>
<trkpt lat="50.622118" lon="5.515683"><time>2026-05-02T17:52:55Z</time></trkpt>
<trkpt lat="50.621773" lon="5.514162"><time>2026-05-02T18:02:55Z</time></trkpt>
</trkseg></trk>
<trk>
<name>lsrjmL210</name>
<cmt>v</cmt>
<desc>Jemeppe-sur-Meuse Chemin n°L210 Rue des Coquerais</desc>
<link href="https://chemins.be/jemeppessurmeuse/chemin/L210"/><trkseg>
<trkpt lat="50.621773" lon="5.514162"><time>2026-05-02T18:02:55Z</time></trkpt>
<trkpt lat="50.620995" lon="5.510587"><time>2026-05-02T18:12:55Z</time></trkpt>
<trkpt lat="50.620773" lon="5.509646"><time>2026-05-02T18:22:55Z</time></trkpt>
<trkpt lat="50.620793" lon="5.509453"><time>2026-05-02T18:32:55Z</time></trkpt>
<trkpt lat="50.620698" lon="5.508881"><time>2026-05-02T18:42:55Z</time></trkpt>
</trkseg></trk>
<trk>
<name>lsrjmL210</name>
<cmt>d</cmt>
<desc>Jemeppe-sur-Meuse Chemin n°L210 Rue des Coquerais</desc>
<link href="https://chemins.be/jemeppessurmeuse/chemin/L210"/><trkseg>
<trkpt lat="50.620698" lon="5.508881"><time>2026-05-02T18:42:55Z</time></trkpt>
<trkpt lat="50.620399" lon="5.507948"><time>2026-05-02T18:52:55Z</time></trkpt>
</trkseg></trk>
<trk>
<name>lsrjmL210</name>
<cmt>s</cmt>
<desc>Jemeppe-sur-Meuse Chemin n°L210 Rue des Coquerais</desc>
<link href="https://chemins.be/jemeppessurmeuse/chemin/L210"/><trkseg>
<trkpt lat="50.620399" lon="5.507948"><time>2026-05-02T18:52:55Z</time></trkpt>
<trkpt lat="50.619734" lon="5.505177"><time>2026-05-02T19:02:55Z</time></trkpt>
<trkpt lat="50.619135" lon="5.500084"><time>2026-05-02T19:12:55Z</time></trkpt>
<trkpt lat="50.618484" lon="5.497663"><time>2026-05-02T19:22:55Z</time></trkpt>
</trkseg></trk>
<trk>
<name>lsrjmL210</name>
<cmt>t</cmt>
<desc>Jemeppe-sur-Meuse Chemin n°L210 Rue des Coquerais</desc>
<link href="https://chemins.be/jemeppessurmeuse/chemin/L210"/><trkseg>
<trkpt lat="50.618484" lon="5.497663"><time>2026-05-02T19:22:55Z</time></trkpt>
<trkpt lat="50.617218" lon="5.495009"><time>2026-05-02T19:32:55Z</time></trkpt>
<trkpt lat="50.613825" lon="5.490843"><time>2026-05-02T19:42:55Z</time></trkpt>
<trkpt lat="50.609168" lon="5.485951"><time>2026-05-02T19:52:55Z</time></trkpt>
</trkseg>
</trk>
</gpx>